sat.trackr.live / text

‹ back to catalog

STARLINK-11280 [DTC]

NORAD 61245 · 2024-175C

PAYLOAD ACTIVE UNKNOWN

§ Identity

Operator
Country
US
Launch date
2024-09-25
Launch site
AFWTR
Launch vehicle
Mass (kg)
RCS (m²)

Purposes: comms

External: N2YO · Heavens-Above · Gunter

§ Orbital elements

Epoch: 2026-05-25T03:01:15.396960Z

Period
91.74 min
Inclination
53.1585°
Eccentricity
0.0000875
Mean motion
15.69704535 rev/d
Perigee alt
359.2 km
Apogee alt
360.3 km
Semi-major
6,737.9 km
B*
8.0015e-6
RAAN
39.3236°
Arg perigee
76.8203°
Mean anomaly
283.2913°
Rev number
9,537

§ Raw data

STARLINK-11280 [DTC]1 61245U 24175C   26145.12587265  .00000381  00000+0  80015-5 0  99912 61245  53.1585  39.3236 0000875  76.8203 283.2913 15.69704535 95376

JSON: /api/v1/satellites/61245 · /tle

For live sub-satellite position, see the globe view (requires WebGL).

§ Visibility from observer

Set your observer location to see the next 7 days of passes ≥ 10°. The values pass through the URL so the page stays shareable.

No JS? Fill the form by hand. The geolocation button needs JavaScript.